This is the latest recevied weather packets stored in our database for station/object K7TUS-6. If no packets are shown the sender has not sent any weather packets the latest 10 day(s).
| Time | Temp. | Humidity | Pressure | Rain* | Wind** | Luminosity | Snow |
|---|---|---|---|---|---|---|---|
| 1778200808 | 17.22° C | 1% | 983.6 hPa | - | - | - | - |
| 1778200507 | 15.56° C | 1% | 983.8 hPa | - | - | - | - |
| 1778200207 | 13.89° C | 1% | 984.3 hPa | - | - | - | - |
| 1778199906 | 14.44° C | 1% | 984.1 hPa | - | - | - | - |
| 1778199605 | 14.44° C | 1% | 983.6 hPa | - | - | - | - |
| 1778199304 | 15.56° C | 1% | 983.9 hPa | - | - | - | - |
| 1778199004 | 17.22° C | 1% | 983.7 hPa | - | - | - | - |
| 1778198703 | 17.22° C | 1% | 983.7 hPa | - | - | - | - |
| 1778198409 | 19.44° C | 1% | 983 hPa | - | - | - | - |
| 1778198108 | 17.22° C | 1% | 984 hPa | - | - | - | - |
| 1778197807 | 18.89° C | 1% | 983.1 hPa | - | - | - | - |
| 1778197507 | 20.56° C | 1% | 983.9 hPa | - | - | - | - |
| 1778197206 | 18.33° C | 1% | 984.2 hPa | - | - | - | - |
| 1778196905 | 18.33° C | 1% | 984.5 hPa | - | - | - | - |
| 1778196604 | 17.78° C | 1% | 983.1 hPa | - | - | - | - |
| 1778196304 | 17.78° C | 1% | 984.2 hPa | - | - | - | - |
| 1778196003 | 18.33° C | 1% | 983.5 hPa | - | - | - | - |
| 1778195709 | 17.78° C | 1% | 983.9 hPa | - | - | - | - |
| 1778195408 | 15.56° C | 1% | 983.4 hPa | - | - | - | - |
| 1778195108 | 15° C | 1% | 983.8 hPa | - | - | - | - |
| 1778194807 | 15.56° C | 1% | 983.3 hPa | - | - | - | - |
| 1778194506 | 17.22° C | 1% | 984.4 hPa | - | - | - | - |
| 1778194206 | 23.33° C | 1% | 983.8 hPa | - | - | - | - |
| 1778193905 | 22.22° C | 1% | 983.5 hPa | - | - | - | - |
| 1778193603 | 20.56° C | 1% | 984.2 hPa | - | - | - | - |
* Rain since midnight (hover to see other rain measurements)
** Current wind speed in m/s (hover to see current wind gust speed)